Actual water levels and discharges of Vltava river

Vraňany

Date and time (UTC) H (cm) Q (m3/s)
29. 9. 2020 10:20 31 72.1
29. 9. 2020 10:00 29 70
29. 9. 2020 09:00 32 73
29. 9. 2020 08:00 35 76
29. 9. 2020 07:00 35 76
29. 9. 2020 06:00 34 75
29. 9. 2020 05:00 34 75
29. 9. 2020 04:00 36 77
29. 9. 2020 03:00 31 72
29. 9. 2020 02:00 29 70
29. 9. 2020 01:00 39 80
29. 9. 2020 00:00 39 80
28. 9. 2020 23:00 38 79
28. 9. 2020 22:00 40 81

H - water level, Q - discharge

Praha-Chuchle

Date and time (UTC) H (cm) Q (m3/s)
29. 9. 2020 10:20 57 96
29. 9. 2020 10:00 54 86
29. 9. 2020 09:00 49 69
29. 9. 2020 08:00 48 66
29. 9. 2020 07:00 48 66
29. 9. 2020 06:00 48 66
29. 9. 2020 05:00 48 66
29. 9. 2020 04:00 48 66
29. 9. 2020 03:00 48 66
29. 9. 2020 02:00 48 66
29. 9. 2020 01:00 48 66
29. 9. 2020 00:00 48 66
28. 9. 2020 23:00 48 66
28. 9. 2020 22:00 48 66

H - water level, Q - discharge
more information

VD Vrané nad Vltavou

Date and time (UTC) H (m n. m.) Q (m3/s)
29. 9. 2020 10:30 200.04 94.8
29. 9. 2020 10:00 200.06 95
29. 9. 2020 09:00 199.98 92
29. 9. 2020 08:00 199.86 70
29. 9. 2020 07:00 199.81 45
29. 9. 2020 06:00 199.82 45
29. 9. 2020 05:00 199.87 45
29. 9. 2020 04:00 199.92 45
29. 9. 2020 03:00 199.95 45
29. 9. 2020 02:00 199.99 45
29. 9. 2020 01:00 200.02 45
29. 9. 2020 00:00 199.99 45
28. 9. 2020 23:00 199.94 45
28. 9. 2020 22:00 199.95 45

H - water level, Q - outflow

VD Štěchovice

Date and time (UTC) H (m n. m.) Q (m3/s)
29. 9. 2020 10:30 218.36 74.9
29. 9. 2020 10:00 218.13 89
29. 9. 2020 09:00 217.90 150
29. 9. 2020 08:00 217.83 150
29. 9. 2020 07:00 217.62 25
29. 9. 2020 06:00 217.16 0
29. 9. 2020 05:00 217.16 0
29. 9. 2020 04:00 217.16 0
29. 9. 2020 03:00 217.17 0
29. 9. 2020 02:00 217.17 0
29. 9. 2020 01:00 217.21 50
29. 9. 2020 00:00 217.43 50
28. 9. 2020 23:00 217.64 50
28. 9. 2020 22:00 217.77 24

H - water level, Q - outflow

VD Slapy

Date and time (UTC) H (m n. m.) Q (m3/s)
29. 9. 2020 10:30 270.24 186.1
29. 9. 2020 10:00 270.23 157
29. 9. 2020 09:00 270.23 164
29. 9. 2020 08:00 270.21 185
29. 9. 2020 07:00 270.24 128
29. 9. 2020 06:00 270.29 38
29. 9. 2020 05:00 270.27 0
29. 9. 2020 04:00 270.30 0
29. 9. 2020 03:00 270.27 0
29. 9. 2020 02:00 270.30 0
29. 9. 2020 01:00 270.28 0
29. 9. 2020 00:00 270.29 0
28. 9. 2020 23:00 270.31 0
28. 9. 2020 22:00 270.28 0

H - water level, Q - outflow

VD Kamýk

Date and time (UTC) H (m n. m.) Q (m3/s)
29. 9. 2020 10:30 282.89 -
29. 9. 2020 10:00 282.97 -
29. 9. 2020 09:00 282.87 -
29. 9. 2020 08:00 282.76 -
29. 9. 2020 07:00 282.62 -
29. 9. 2020 06:00 282.59 -
29. 9. 2020 05:00 282.62 -
29. 9. 2020 04:00 282.61 -
29. 9. 2020 03:00 282.63 -
29. 9. 2020 02:00 282.58 -
29. 9. 2020 01:00 282.57 -
29. 9. 2020 00:00 282.58 -
28. 9. 2020 23:00 282.64 -
28. 9. 2020 22:00 282.62 -

H - water level, Q - outflow

VD Orlík

Date and time (UTC) H (m n. m.) Q (m3/s)
29. 9. 2020 10:30 348.83 0
29. 9. 2020 10:00 348.83 155
29. 9. 2020 09:00 348.85 213
29. 9. 2020 08:00 348.86 273
29. 9. 2020 07:00 348.89 45
29. 9. 2020 06:00 348.87 0
29. 9. 2020 05:00 348.87 0
29. 9. 2020 04:00 348.85 0
29. 9. 2020 03:00 348.83 0
29. 9. 2020 02:00 348.84 0
29. 9. 2020 01:00 348.82 0
29. 9. 2020 00:00 348.81 0
28. 9. 2020 23:00 348.78 0
28. 9. 2020 22:00 348.77 0

H - water level, Q - outflow

VD Kořensko

Date and time (UTC) H (m n. m.) Q (m3/s)
29. 9. 2020 10:30 352.6 61.9
29. 9. 2020 10:00 352.60 61
29. 9. 2020 09:00 352.59 61
29. 9. 2020 08:00 352.59 61
29. 9. 2020 07:00 352.59 61
29. 9. 2020 06:00 352.59 61
29. 9. 2020 05:00 352.59 61
29. 9. 2020 04:00 352.59 61
29. 9. 2020 03:00 352.60 57
29. 9. 2020 02:00 352.53 13
29. 9. 2020 01:00 352.40 82
29. 9. 2020 00:00 352.47 101
28. 9. 2020 23:00 352.55 113
28. 9. 2020 22:00 352.56 115

H - water level, Q - outflow

VD Hněvkovice I - přehrada

Date and time (UTC) H (m n. m.) Q (m3/s)
- - -

H - water level, Q - outflow

České Budějovice

Date and time (UTC) H (cm) Q (m3/s)
29. 9. 2020 10:20 110 37.2
29. 9. 2020 10:00 110 38
29. 9. 2020 09:00 111 31
29. 9. 2020 08:00 105 27
29. 9. 2020 07:00 106 27
29. 9. 2020 06:00 104 27
29. 9. 2020 05:00 106 29
29. 9. 2020 04:00 105 28
29. 9. 2020 03:00 105 29
29. 9. 2020 02:00 107 28
29. 9. 2020 01:00 105 28
29. 9. 2020 00:00 107 30
28. 9. 2020 23:00 106 29
28. 9. 2020 22:00 106 30

H - water level, Q - discharge
more information

Vyšší Brod

Date and time (UTC) H (cm) Q (m3/s)
29. 9. 2020 10:20 111 21.5
29. 9. 2020 10:00 111 22
29. 9. 2020 09:00 110 21
29. 9. 2020 08:00 110 21
29. 9. 2020 07:00 109 21
29. 9. 2020 06:00 110 21
29. 9. 2020 05:00 110 21
29. 9. 2020 04:00 111 22
29. 9. 2020 03:00 111 22
29. 9. 2020 02:00 112 22
29. 9. 2020 01:00 112 22
29. 9. 2020 00:00 113 22
28. 9. 2020 23:00 113 22
28. 9. 2020 22:00 113 22

H - water level, Q - discharge
Source data
Labe Basin Vltava Basin Povodí Moravy ČHMÚ